#ZEITBEREICH: 17.05.2023 bis 17.05.2024
Datum;Zeit;STYR NO AM1H [�g/m�];STYR NO2 AM1H [�g/m�];STYR O3 AM1H [�g/m�];STYR PM10F GM24H [�g/m�];STYR WG SM1H [m/s];STYR WR VM1H [�]
17.05.2023;01:00;<7;11;48;<10;2,0;311
17.05.2023;02:00;<7;16;39;<10;1,4;311
17.05.2023;03:00;;;;<10;1,4;293
17.05.2023;04:00;<7;21;20;<10;1,1;260
17.05.2023;05:00;<7;37;6;<10;1,0;262
17.05.2023;06:00;<7;37;17;<10;1,6;314
17.05.2023;07:00;<7;22;39;<10;2,6;338
17.05.2023;08:00;<7;<10;64;<10;3,6;0
17.05.2023;09:00;<7;<10;70;<10;3,7;0
17.05.2023;10:00;<7;<10;72;<10;3,8;350
17.05.2023;11:00;<7;<10;70;<10;4,0;347
17.05.2023;12:00;<7;<10;71;<10;3,6;356
17.05.2023;13:00;<7;<10;72;<10;3,9;336
17.05.2023;14:00;<7;<10;77;<10;3,6;359
17.05.2023;15:00;<7;<10;80;<10;3,8;3
17.05.2023;16:00;<7;<10;86;10;3,7;352
17.05.2023;17:00;<7;<10;87;10;3,7;341
17.05.2023;18:00;<7;<10;88;11;3,3;353
17.05.2023;19:00;<7;<10;87;11;3,7;13
17.05.2023;20:00;<7;<10;82;11;3,3;23
17.05.2023;21:00;<7;13;72;11;2,4;41
17.05.2023;22:00;<7;14;68;12;2,7;40
17.05.2023;23:00;<7;14;64;12;2,8;44
17.05.2023;24:00;<7;18;58;12;2,9;44
18.05.2023;01:00;<7;16;56;12;2,9;45
18.05.2023;02:00;<7;16;53;13;2,8;50
18.05.2023;03:00;<7;14;50;13;2,8;48
18.05.2023;04:00;;;;13;2,7;45
18.05.2023;05:00;<7;19;38;13;3,1;50
18.05.2023;06:00;<7;18;40;12;3,6;54
18.05.2023;07:00;<7;13;48;12;4,0;56
18.05.2023;08:00;<7;<10;58;12;3,8;65
18.05.2023;09:00;<7;<10;65;12;3,7;61
18.05.2023;10:00;<7;<10;68;12;3,3;59
18.05.2023;11:00;<7;<10;74;12;3,9;48
18.05.2023;12:00;<7;<10;79;13;3,3;53
18.05.2023;13:00;<7;<10;84;13;3,1;52
18.05.2023;14:00;<7;<10;86;13;3,7;56
18.05.2023;15:00;<7;<10;89;13;4,2;50
18.05.2023;16:00;<7;<10;90;13;4,0;47
18.05.2023;17:00;<7;<10;91;13;4,1;42
18.05.2023;18:00;<7;<10;91;13;4,2;46
18.05.2023;19:00;<7;<10;91;13;4,0;40
18.05.2023;20:00;<7;<10;89;13;4,1;44
18.05.2023;21:00;<7;11;80;13;3,0;40
18.05.2023;22:00;<7;17;71;13;2,9;41
18.05.2023;23:00;<7;13;74;13;3,0;47
18.05.2023;24:00;<7;17;63;13;2,4;47
19.05.2023;01:00;<7;13;62;13;2,6;44
19.05.2023;02:00;<7;14;56;13;2,5;51
19.05.2023;03:00;<7;20;41;13;1,0;26
19.05.2023;04:00;<7;24;35;13;1,6;38
19.05.2023;05:00;;;;13;1,9;42
19.05.2023;06:00;<7;27;29;13;2,5;49
19.05.2023;07:00;<7;29;31;13;3,7;52
19.05.2023;08:00;<7;21;42;13;3,7;57
19.05.2023;09:00;<7;15;55;13;3,6;58
19.05.2023;10:00;<7;12;66;13;4,1;64
19.05.2023;11:00;<7;<10;81;13;4,8;73
19.05.2023;12:00;<7;<10;88;13;4,1;72
19.05.2023;13:00;<7;<10;93;13;3,9;63
19.05.2023;14:00;<7;<10;97;13;4,1;52
19.05.2023;15:00;<7;<10;101;13;4,2;57
19.05.2023;16:00;<7;<10;105;13;4,1;44
19.05.2023;17:00;<7;<10;107;13;4,6;49
19.05.2023;18:00;<7;<10;107;13;5,2;50
19.05.2023;19:00;<7;<10;105;13;4,4;48
19.05.2023;20:00;<7;<10;100;13;4,5;47
19.05.2023;21:00;<7;14;89;13;3,5;43
19.05.2023;22:00;<7;18;79;13;3,4;45
19.05.2023;23:00;<7;22;68;13;3,2;47
19.05.2023;24:00;<7;24;63;12;3,2;51
20.05.2023;01:00;<7;24;56;12;2,6;41
20.05.2023;02:00;<7;21;52;12;1,9;27
20.05.2023;03:00;<7;20;43;12;2,0;26
20.05.2023;04:00;<7;18;50;12;2,6;39
20.05.2023;05:00;<7;17;50;12;3,1;44
20.05.2023;06:00;;;;12;3,7;50
20.05.2023;07:00;<7;15;51;12;5,2;52
20.05.2023;08:00;<7;11;58;12;6,2;54
20.05.2023;09:00;<7;<10;64;12;6,3;59
20.05.2023;10:00;<7;<10;60;12;6,2;57
20.05.2023;11:00;<7;<10;63;12;7,7;55
20.05.2023;12:00;<7;<10;64;13;7,7;57
20.05.2023;13:00;<7;14;68;13;6,5;56
20.05.2023;14:00;<7;11;79;15;5,8;61
20.05.2023;15:00;<7;<10;85;15;5,8;62
20.05.2023;16:00;<7;<10;87;15;5,6;50
20.05.2023;17:00;<7;<10;87;15;6,0;51
20.05.2023;18:00;<7;<10;84;15;5,2;59
20.05.2023;19:00;<7;<10;82;15;5,4;61
20.05.2023;20:00;<7;<10;75;15;4,4;61
20.05.2023;21:00;<7;10;69;15;4,3;58
20.05.2023;22:00;<7;14;61;15;3,1;52
20.05.2023;23:00;<7;14;58;16;3,3;50
20.05.2023;24:00;<7;12;54;16;3,4;51
21.05.2023;01:00;<7;12;51;16;1,9;43
21.05.2023;02:00;<7;11;51;16;2,2;33
21.05.2023;03:00;<7;14;47;17;2,6;38
21.05.2023;04:00;<7;16;44;17;2,4;41
21.05.2023;05:00;<7;12;45;17;2,4;39
21.05.2023;06:00;<7;15;38;17;2,6;41
21.05.2023;07:00;;;;17;2,8;42
21.05.2023;08:00;<7;12;42;17;3,2;46
21.05.2023;09:00;<7;13;43;17;3,4;47
21.05.2023;10:00;<7;13;48;17;3,2;49
21.05.2023;11:00;<7;11;57;17;3,7;47
21.05.2023;12:00;<7;<10;68;17;3,4;41
21.05.2023;13:00;<7;<10;76;17;3,2;35
21.05.2023;14:00;<7;<10;81;16;3,8;43
21.05.2023;15:00;<7;17;81;17;4,2;49
21.05.2023;16:00;<7;11;89;18;3,5;41
21.05.2023;17:00;<7;<10;94;18;3,5;43
21.05.2023;18:00;<7;12;98;20;3,4;40
21.05.2023;19:00;<7;11;95;20;3,0;34
21.05.2023;20:00;<7;14;87;21;2,7;15
21.05.2023;21:00;<7;13;85;21;2,0;354
21.05.2023;22:00;<7;15;78;22;2,0;311
21.05.2023;23:00;<7;21;60;22;2,5;338
21.05.2023;24:00;<7;14;59;23;2,4;310
22.05.2023;01:00;<7;16;64;23;2,4;350
22.05.2023;02:00;<7;13;62;23;1,9;26
22.05.2023;03:00;<7;10;64;23;2,1;45
22.05.2023;04:00;<7;12;67;23;2,2;50
22.05.2023;05:00;<7;34;32;23;1,0;305
22.05.2023;06:00;<7;47;10;24;0,8;276
22.05.2023;07:00;16;51;9;24;0,8;265
22.05.2023;08:00;;;16;26;0,9;261
22.05.2023;09:00;11;41;36;27;2,2;268
22.05.2023;10:00;7;24;40;28;3,4;264
22.05.2023;11:00;<7;19;40;30;3,3;255
22.05.2023;12:00;<7;18;53;31;2,6;255
22.05.2023;13:00;<7;20;69;31;2,9;261
22.05.2023;14:00;<7;21;82;32;3,0;272
22.05.2023;15:00;<7;20;97;32;3,0;285
22.05.2023;16:00;<7;16;109;32;3,2;277
22.05.2023;17:00;<7;12;111;33;3,4;267
22.05.2023;18:00;<7;11;107;33;4,3;301
22.05.2023;19:00;<7;14;89;32;3,0;321
22.05.2023;20:00;<7;13;83;32;2,7;319
22.05.2023;21:00;<7;13;88;32;3,5;330
22.05.2023;22:00;<7;13;82;31;2,2;324
22.05.2023;23:00;<7;<10;;30;3,0;318
22.05.2023;24:00;<7;<10;90;30;3,2;316
23.05.2023;01:00;<7;<10;93;29;3,9;306
23.05.2023;02:00;<7;<10;99;29;4,5;313
23.05.2023;03:00;<7;<10;93;29;3,7;307
23.05.2023;04:00;<7;<10;92;28;4,2;309
23.05.2023;05:00;<7;<10;93;28;4,3;316
23.05.2023;06:00;<7;<10;87;27;3,9;316
23.05.2023;07:00;<7;10;85;27;4,3;319
23.05.2023;08:00;<7;12;83;25;4,4;319
23.05.2023;09:00;;;75;24;5,0;326
23.05.2023;10:00;<7;12;63;23;4,6;330
23.05.2023;11:00;<7;11;68;21;4,9;332
23.05.2023;12:00;<7;<10;72;20;4,6;341
23.05.2023;13:00;<7;<10;69;18;4,7;333
23.05.2023;14:00;<7;<10;74;17;4,1;335
23.05.2023;15:00;<7;<10;78;16;4,2;332
23.05.2023;16:00;<7;<10;80;15;4,2;342
23.05.2023;17:00;<7;<10;80;14;4,7;342
23.05.2023;18:00;<7;<10;81;13;4,7;341
23.05.2023;19:00;<7;<10;79;13;4,8;326
23.05.2023;20:00;<7;<10;77;13;4,0;334
23.05.2023;21:00;<7;<10;76;13;3,9;341
23.05.2023;22:00;<7;<10;74;13;3,9;343
23.05.2023;23:00;<7;<10;66;13;2,9;347
23.05.2023;24:00;<7;12;;13;2,5;352
24.05.2023;01:00;<7;11;59;13;;
24.05.2023;02:00;<7;<10;57;13;;
24.05.2023;03:00;<7;12;51;13;1,6;350
24.05.2023;04:00;<7;19;35;14;1,1;352
24.05.2023;05:00;<7;33;17;14;1,3;335
24.05.2023;06:00;12;45;7;14;0,2;
24.05.2023;07:00;12;44;19;15;0,4;
24.05.2023;08:00;<7;23;47;16;1,6;334
24.05.2023;09:00;<7;<10;66;16;3,3;340
24.05.2023;10:00;;;72;16;3,4;348
24.05.2023;11:00;<7;<10;72;16;2,7;339
24.05.2023;12:00;<7;<10;76;16;2,7;1
24.05.2023;13:00;<7;<10;75;16;2,9;17
24.05.2023;14:00;<7;<10;78;16;2,8;2
24.05.2023;15:00;<7;<10;79;15;2,8;24
24.05.2023;16:00;<7;<10;76;15;2,6;26
24.05.2023;17:00;<7;10;72;15;2,2;49
24.05.2023;18:00;<7;15;68;15;2,0;45
24.05.2023;19:00;<7;14;67;15;1,5;39
24.05.2023;20:00;<7;18;65;15;1,8;44
24.05.2023;21:00;<7;17;60;16;1,5;46
24.05.2023;22:00;<7;40;30;15;0,9;56
24.05.2023;23:00;<7;40;20;15;1,0;51
24.05.2023;24:00;<7;35;16;16;1,3;29
25.05.2023;01:00;<7;37;;16;1,6;37
25.05.2023;02:00;<7;30;13;16;2,0;41
25.05.2023;03:00;<7;24;20;16;2,1;34
25.05.2023;04:00;<7;22;27;16;2,1;36
25.05.2023;05:00;<7;25;22;16;1,5;18
25.05.2023;06:00;<7;33;17;15;1,6;30
25.05.2023;07:00;7;31;26;15;2,2;36
25.05.2023;08:00;<7;24;42;15;3,1;43
25.05.2023;09:00;<7;19;53;15;2,8;41
25.05.2023;10:00;<7;14;63;15;3,0;41
25.05.2023;11:00;;;;15;3,6;29
25.05.2023;12:00;;;;15;3,7;47
25.05.2023;13:00;<7;<10;68;15;3,5;40
25.05.2023;14:00;<7;10;71;15;3,4;48
25.05.2023;15:00;<7;11;75;15;3,3;45
25.05.2023;16:00;<7;11;80;15;3,7;44
25.05.2023;17:00;<7;<10;85;15;3,6;36
25.05.2023;18:00;<7;<10;85;15;3,2;25
25.05.2023;19:00;<7;11;83;15;3,3;48
25.05.2023;20:00;<7;12;80;15;2,8;43
25.05.2023;21:00;<7;19;66;15;2,1;29
25.05.2023;22:00;<7;15;74;15;2,9;13
25.05.2023;23:00;<7;<10;72;16;2,9;18
25.05.2023;24:00;<7;<10;70;16;2,7;24
26.05.2023;01:00;<7;<10;67;16;3,2;40
26.05.2023;02:00;<7;<10;68;16;3,7;41
26.05.2023;03:00;<7;<10;64;17;3,0;40
26.05.2023;04:00;<7;11;57;17;2,5;37
26.05.2023;05:00;<7;13;54;17;2,6;29
26.05.2023;06:00;<7;12;59;18;4,0;41
26.05.2023;07:00;<7;17;50;18;3,8;41
26.05.2023;08:00;<7;15;54;18;4,6;51
26.05.2023;09:00;<7;13;56;18;4,1;56
26.05.2023;10:00;<7;13;57;18;4,0;45
26.05.2023;11:00;<7;<10;64;19;4,0;39
26.05.2023;12:00;<7;<10;71;19;3,8;30
26.05.2023;13:00;;;76;19;4,0;32
26.05.2023;14:00;<7;<10;83;19;4,3;36
26.05.2023;15:00;<7;<10;89;19;4,7;37
26.05.2023;16:00;<7;<10;92;19;4,5;37
26.05.2023;17:00;<7;<10;92;20;4,6;43
26.05.2023;18:00;<7;<10;91;20;4,7;41
26.05.2023;19:00;<7;<10;94;20;4,1;46
26.05.2023;20:00;<7;<10;94;20;4,2;48
26.05.2023;21:00;<7;11;86;20;3,4;45
26.05.2023;22:00;<7;11;79;20;3,7;44
26.05.2023;23:00;<7;12;;20;3,4;45
26.05.2023;24:00;<7;15;62;19;3,2;40
27.05.2023;01:00;<7;13;63;19;3,8;49
27.05.2023;02:00;<7;11;62;19;3,7;49
27.05.2023;03:00;<7;<10;61;19;3,9;51
27.05.2023;04:00;<7;10;56;19;3,3;52
27.05.2023;05:00;<7;14;49;19;2,4;45
27.05.2023;06:00;<7;14;46;19;2,9;50
27.05.2023;07:00;<7;15;47;18;3,1;66
27.05.2023;08:00;<7;13;48;18;3,2;59
27.05.2023;09:00;<7;12;51;18;3,0;64
27.05.2023;10:00;<7;12;56;18;2,7;46
27.05.2023;11:00;<7;12;69;17;3,0;43
27.05.2023;12:00;<7;<10;86;17;3,7;54
27.05.2023;13:00;<7;<10;98;17;3,6;57
27.05.2023;14:00;;;106;17;4,0;63
27.05.2023;15:00;<7;<10;109;17;4,1;59
27.05.2023;16:00;<7;<10;111;17;4,4;64
27.05.2023;17:00;<7;<10;110;17;4,0;53
27.05.2023;18:00;<7;<10;108;17;4,0;53
27.05.2023;19:00;<7;<10;104;17;3,9;51
27.05.2023;20:00;<7;11;98;17;3,5;46
27.05.2023;21:00;<7;17;83;17;2,2;39
27.05.2023;22:00;<7;23;69;16;2,4;43
27.05.2023;23:00;<7;27;57;17;1,8;18
27.05.2023;24:00;<7;28;;17;2,0;34
28.05.2023;01:00;<7;25;51;16;1,8;45
28.05.2023;02:00;<7;22;50;16;2,4;55
28.05.2023;03:00;<7;17;53;16;1,6;60
28.05.2023;04:00;<7;19;43;16;1,5;59
28.05.2023;05:00;<7;30;25;16;1,7;23
28.05.2023;06:00;<7;29;25;16;1,3;50
28.05.2023;07:00;<7;23;37;16;1,4;38
28.05.2023;08:00;<7;19;45;16;2,0;43
28.05.2023;09:00;9;31;40;16;2,7;47
28.05.2023;10:00;<7;23;62;16;3,0;50
28.05.2023;11:00;<7;11;89;17;3,8;56
28.05.2023;12:00;<7;<10;95;18;3,7;57
28.05.2023;13:00;<7;<10;100;17;3,8;63
28.05.2023;14:00;<7;<10;102;17;3,6;39
28.05.2023;15:00;;;103;17;4,0;51
28.05.2023;16:00;<7;<10;107;17;4,1;41
28.05.2023;17:00;<7;<10;108;17;4,0;38
28.05.2023;18:00;<7;<10;110;17;4,1;35
28.05.2023;19:00;<7;<10;110;17;4,2;35
28.05.2023;20:00;<7;<10;111;17;4,0;37
28.05.2023;21:00;<7;<10;107;17;3,9;28
28.05.2023;22:00;<7;<10;96;17;4,0;32
28.05.2023;23:00;<7;<10;82;16;4,6;40
28.05.2023;24:00;<7;<10;72;16;4,0;43
29.05.2023;01:00;<7;<10;;16;3,7;35
29.05.2023;02:00;<7;<10;68;16;3,8;32
29.05.2023;03:00;<7;<10;63;15;4,3;27
29.05.2023;04:00;<7;<10;70;15;4,3;37
29.05.2023;05:00;<7;<10;66;15;4,2;37
29.05.2023;06:00;<7;<10;61;15;4,2;39
29.05.2023;07:00;<7;<10;60;15;4,8;40
29.05.2023;08:00;<7;<10;57;14;4,3;41
29.05.2023;09:00;<7;<10;64;14;4,7;34
29.05.2023;10:00;<7;<10;64;14;4,3;32
29.05.2023;11:00;<7;<10;69;13;4,8;27
29.05.2023;12:00;<7;<10;74;12;4,4;39
29.05.2023;13:00;<7;<10;80;12;4,4;33
29.05.2023;14:00;<7;<10;85;12;4,2;36
29.05.2023;15:00;<7;<10;85;12;4,3;36
29.05.2023;16:00;;;88;12;4,2;14
29.05.2023;17:00;<7;<10;95;12;4,4;17
29.05.2023;18:00;<7;<10;98;12;4,3;31
29.05.2023;19:00;<7;<10;97;12;4,3;42
29.05.2023;20:00;<7;<10;94;12;4,4;20
29.05.2023;21:00;<7;<10;92;12;4,2;23
29.05.2023;22:00;<7;<10;86;12;3,7;23
29.05.2023;23:00;<7;<10;80;12;3,5;17
29.05.2023;24:00;<7;<10;72;12;3,7;20
30.05.2023;01:00;<7;<10;71;12;3,1;24
30.05.2023;02:00;<7;<10;;12;3,1;32
30.05.2023;03:00;<7;<10;67;13;3,1;37
30.05.2023;04:00;<7;<10;62;13;2,8;35
30.05.2023;05:00;<7;<10;59;13;3,2;40
30.05.2023;06:00;<7;13;61;13;3,6;51
30.05.2023;07:00;<7;14;61;14;3,5;48
30.05.2023;08:00;<7;11;65;14;4,1;36
30.05.2023;09:00;<7;11;66;14;3,9;27
30.05.2023;10:00;<7;<10;72;14;3,8;45
30.05.2023;11:00;<7;<10;81;15;4,4;44
30.05.2023;12:00;<7;<10;84;15;3,5;45
30.05.2023;13:00;<7;<10;91;15;3,8;24
30.05.2023;14:00;<7;<10;96;15;3,6;42
30.05.2023;15:00;<7;<10;97;15;4,3;49
30.05.2023;16:00;<7;<10;98;15;3,9;31
30.05.2023;17:00;;;96;15;3,8;45
30.05.2023;18:00;<7;<10;95;15;4,1;45
30.05.2023;19:00;<7;<10;87;15;4,1;41
30.05.2023;20:00;<7;<10;68;15;5,0;42
30.05.2023;21:00;<7;<10;57;15;4,4;41
30.05.2023;22:00;<7;12;53;15;4,0;54
30.05.2023;23:00;<7;12;51;15;3,3;52
30.05.2023;24:00;<7;15;47;15;3,5;51
31.05.2023;01:00;<7;16;44;15;3,3;49
31.05.2023;02:00;<7;17;43;15;4,1;51
31.05.2023;03:00;<7;19;;15;4,3;51
31.05.2023;04:00;<7;21;34;15;4,0;53
31.05.2023;05:00;<7;21;31;15;3,8;55
31.05.2023;06:00;<7;24;27;15;3,8;56
31.05.2023;07:00;<7;22;30;14;3,0;58
31.05.2023;08:00;<7;19;38;14;3,5;55
31.05.2023;09:00;<7;18;46;14;4,1;60
31.05.2023;10:00;<7;17;57;15;4,0;63
31.05.2023;11:00;<7;16;71;15;3,6;47
31.05.2023;12:00;<7;<10;95;15;4,7;47
31.05.2023;13:00;<7;<10;101;15;4,8;54
31.05.2023;14:00;<7;<10;103;15;4,9;55
31.05.2023;15:00;<7;<10;102;15;4,9;56
31.05.2023;16:00;<7;<10;102;15;4,9;55
31.05.2023;17:00;<7;<10;103;14;4,7;55
31.05.2023;18:00;;;104;14;5,4;65
31.05.2023;19:00;<7;<10;100;14;4,4;65
31.05.2023;20:00;<7;<10;99;14;4,0;59
31.05.2023;21:00;<7;14;89;14;2,6;52
31.05.2023;22:00;<7;36;50;14;1,8;33
31.05.2023;23:00;<7;20;78;14;3,0;41
31.05.2023;24:00;<7;11;73;14;4,0;35
01.06.2023;01:00;<7;11;63;14;2,7;30
01.06.2023;02:00;<7;<10;64;14;2,5;29
01.06.2023;03:00;<7;<10;55;14;2,0;3
01.06.2023;04:00;<7;<10;;14;3,3;16
01.06.2023;05:00;<7;17;42;15;3,6;17
01.06.2023;06:00;<7;20;39;15;2,9;24
01.06.2023;07:00;<7;21;42;16;2,8;36
01.06.2023;08:00;<7;19;45;17;3,0;357
01.06.2023;09:00;<7;18;50;17;3,0;24
01.06.2023;10:00;<7;15;59;17;3,0;17
01.06.2023;11:00;<7;13;68;17;3,0;32
01.06.2023;12:00;<7;<10;82;17;2,9;17
01.06.2023;13:00;<7;<10;90;18;3,1;347
01.06.2023;14:00;<7;<10;88;18;3,6;3
01.06.2023;15:00;<7;<10;89;18;3,7;357
01.06.2023;16:00;<7;<10;90;18;3,7;6
01.06.2023;17:00;<7;<10;96;18;3,8;3
01.06.2023;18:00;<7;<10;97;19;3,9;354
01.06.2023;19:00;;;75;19;4,6;359
01.06.2023;20:00;<7;<10;73;19;4,0;360
01.06.2023;21:00;<7;<10;75;19;3,9;356
01.06.2023;22:00;<7;<10;73;19;3,8;358
01.06.2023;23:00;<7;<10;73;19;3,2;10
01.06.2023;24:00;<7;<10;76;19;3,5;4
02.06.2023;01:00;<7;<10;76;19;3,2;29
02.06.2023;02:00;<7;<10;78;19;3,8;21
02.06.2023;03:00;<7;<10;80;19;3,5;10
02.06.2023;04:00;<7;<10;83;19;2,8;3
02.06.2023;05:00;<7;<10;;19;2,9;7
02.06.2023;06:00;<7;<10;78;19;2,8;14
02.06.2023;07:00;<7;<10;80;18;3,1;15
02.06.2023;08:00;<7;<10;75;17;2,5;27
02.06.2023;09:00;<7;<10;75;17;2,5;7
02.06.2023;10:00;<7;<10;74;17;2,6;30
02.06.2023;11:00;<7;<10;77;17;3,0;39
02.06.2023;12:00;<7;<10;79;17;4,0;35
02.06.2023;13:00;<7;<10;78;17;4,4;50
02.06.2023;14:00;<7;<10;80;17;4,8;51
02.06.2023;15:00;<7;<10;82;17;4,9;51
02.06.2023;16:00;<7;<10;84;17;5,0;49
02.06.2023;17:00;<7;<10;84;18;4,4;54
02.06.2023;18:00;<7;<10;88;18;4,5;63
02.06.2023;19:00;<7;15;86;18;4,4;52
02.06.2023;20:00;;;83;19;3,5;42
02.06.2023;21:00;<7;12;77;19;2,4;41
02.06.2023;22:00;<7;21;63;20;2,2;40
02.06.2023;23:00;<7;25;54;20;2,3;53
02.06.2023;24:00;<7;26;48;20;2,4;59
03.06.2023;01:00;<7;24;45;21;2,6;59
03.06.2023;02:00;<7;18;46;21;3,0;58
03.06.2023;03:00;<7;16;44;21;3,5;56
03.06.2023;04:00;<7;20;39;21;3,7;54
03.06.2023;05:00;<7;14;43;21;3,7;57
03.06.2023;06:00;<7;15;;20;3,8;57
03.06.2023;07:00;<7;12;47;20;3,9;55
03.06.2023;08:00;<7;<10;53;20;4,3;53
03.06.2023;09:00;<7;10;53;19;4,4;47
03.06.2023;10:00;<7;<10;62;19;5,2;53
03.06.2023;11:00;<7;<10;71;19;4,8;52
03.06.2023;12:00;<7;<10;84;18;5,0;61
03.06.2023;13:00;<7;<10;92;18;4,8;68
03.06.2023;14:00;<7;<10;95;18;4,9;45
03.06.2023;15:00;<7;<10;99;17;4,7;56
03.06.2023;16:00;<7;<10;98;17;5,3;52
03.06.2023;17:00;<7;<10;93;17;5,2;46
03.06.2023;18:00;<7;<10;93;16;4,9;45
03.06.2023;19:00;<7;<10;94;15;4,9;48
03.06.2023;20:00;<7;<10;90;14;4,4;48
03.06.2023;21:00;;;86;14;4,3;47
03.06.2023;22:00;<7;23;71;13;3,0;53
03.06.2023;23:00;<7;30;60;13;2,6;54
03.06.2023;24:00;<7;45;37;13;2,5;54
04.06.2023;01:00;<7;35;46;12;2,5;43
04.06.2023;02:00;<7;23;56;12;2,9;43
04.06.2023;03:00;<7;21;52;12;3,1;53
04.06.2023;04:00;<7;18;51;12;2,9;49
04.06.2023;05:00;<7;17;48;11;3,0;45
04.06.2023;06:00;<7;19;48;11;3,0;51
04.06.2023;07:00;<7;11;;11;2,9;52
04.06.2023;08:00;<7;11;57;11;2,8;56
04.06.2023;09:00;<7;<10;65;11;2,8;60
04.06.2023;10:00;<7;13;72;11;2,8;47
04.06.2023;11:00;<7;<10;90;11;4,0;52
04.06.2023;12:00;<7;<10;100;11;3,9;61
04.06.2023;13:00;<7;<10;104;11;3,4;49
04.06.2023;14:00;<7;<10;108;11;3,7;51
04.06.2023;15:00;<7;<10;112;11;3,9;44
04.06.2023;16:00;<7;<10;114;11;3,7;48
04.06.2023;17:00;<7;<10;114;11;4,1;45
04.06.2023;18:00;<7;<10;114;11;4,0;41
04.06.2023;19:00;<7;<10;113;11;4,1;49
04.06.2023;20:00;<7;<10;104;11;3,2;46
04.06.2023;21:00;<7;14;95;11;3,0;47
04.06.2023;22:00;;;85;11;2,3;51
04.06.2023;23:00;<7;41;50;11;2,2;28
04.06.2023;24:00;<7;16;74;11;3,5;43
05.06.2023;01:00;<7;13;69;11;2,7;43
05.06.2023;02:00;<7;11;64;11;2,7;39
05.06.2023;03:00;<7;12;57;11;3,0;34
05.06.2023;04:00;<7;17;47;11;2,5;39
05.06.2023;05:00;<7;23;39;11;1,8;43
05.06.2023;06:00;<7;27;35;11;2,7;51
05.06.2023;07:00;<7;22;39;11;3,2;54
05.06.2023;08:00;<7;22;40;12;2,7;46
05.06.2023;09:00;<7;26;38;12;2,8;41
05.06.2023;10:00;<7;26;45;13;2,9;37
05.06.2023;11:00;<7;17;67;13;3,2;34
05.06.2023;12:00;<7;15;85;13;3,9;37
05.06.2023;13:00;<7;<10;102;13;3,6;47
05.06.2023;14:00;<7;<10;109;13;3,8;52
05.06.2023;15:00;<7;<10;116;13;3,4;36
05.06.2023;16:00;<7;<10;119;13;3,2;39
05.06.2023;17:00;<7;<10;120;13;3,2;32
05.06.2023;18:00;<7;<10;120;13;3,3;40
05.06.2023;19:00;<7;<10;117;14;3,3;39
05.06.2023;20:00;<7;<10;114;14;3,4;36
05.06.2023;21:00;<7;12;106;14;2,3;23
05.06.2023;22:00;<7;14;98;14;2,5;18
05.06.2023;23:00;;;;14;3,2;22
05.06.2023;24:00;<7;11;74;14;2,5;19
06.06.2023;01:00;<7;10;70;15;2,3;22
06.06.2023;02:00;<7;10;65;15;2,2;19
06.06.2023;03:00;<7;12;58;15;2,1;22
06.06.2023;04:00;<7;12;55;15;2,2;19
06.06.2023;05:00;<7;17;44;15;2,1;24
06.06.2023;06:00;<7;23;38;15;2,2;32
06.06.2023;07:00;<7;22;39;15;2,7;34
06.06.2023;08:00;<7;23;39;15;2,5;38
06.06.2023;09:00;<7;25;40;15;2,3;34
06.06.2023;10:00;<7;19;61;15;2,4;18
06.06.2023;11:00;<7;22;58;16;2,8;10
06.06.2023;12:00;<7;15;76;16;2,9;16
06.06.2023;13:00;<7;14;97;16;3,3;26
06.06.2023;14:00;<7;<10;121;16;3,4;45
06.06.2023;15:00;<7;<10;124;16;4,1;64
06.06.2023;16:00;<7;<10;123;16;4,1;52
06.06.2023;17:00;<7;<10;121;16;3,5;59
06.06.2023;18:00;<7;<10;110;16;3,6;54
06.06.2023;19:00;<7;<10;110;16;3,6;51
06.06.2023;20:00;<7;<10;107;16;3,2;35
06.06.2023;21:00;<7;11;98;16;2,7;44
06.06.2023;22:00;<7;23;80;16;1,9;35
06.06.2023;23:00;<7;17;82;16;2,5;15
06.06.2023;24:00;;;;17;2,4;29
07.06.2023;01:00;<7;<10;74;17;2,3;35
07.06.2023;02:00;<7;10;71;17;2,2;37
07.06.2023;03:00;<7;<10;77;17;2,4;35
07.06.2023;04:00;<7;<10;76;17;1,9;27
07.06.2023;05:00;<7;12;72;17;2,7;35
07.06.2023;06:00;<7;20;61;17;2,6;31
07.06.2023;07:00;<7;24;47;18;2,1;28
07.06.2023;08:00;<7;25;44;18;2,6;41
07.06.2023;09:00;<7;25;43;17;2,8;39
07.06.2023;10:00;<7;24;36;17;2,2;15
07.06.2023;11:00;<7;23;28;17;2,2;23
07.06.2023;12:00;<7;22;35;17;2,6;13
07.06.2023;13:00;<7;17;47;17;3,0;17
07.06.2023;14:00;<7;14;71;18;3,6;24
07.06.2023;15:00;<7;12;87;18;4,1;38
07.06.2023;16:00;<7;11;93;18;3,7;51
07.06.2023;17:00;<7;10;103;18;3,0;38
07.06.2023;18:00;<7;11;101;19;3,7;51
07.06.2023;19:00;<7;28;65;19;0,9;
07.06.2023;20:00;<7;21;72;19;2,0;55
07.06.2023;21:00;<7;42;42;19;1,7;45
07.06.2023;22:00;<7;44;32;19;1,6;39
07.06.2023;23:00;<7;41;45;20;2,4;34
07.06.2023;24:00;<7;18;68;20;2,3;34
08.06.2023;01:00;;;;20;2,4;33
08.06.2023;02:00;<7;14;66;20;2,6;39
08.06.2023;03:00;<7;13;68;20;3,0;47
08.06.2023;04:00;<7;12;66;20;3,1;48
08.06.2023;05:00;<7;13;59;20;1,7;37
08.06.2023;06:00;<7;16;50;20;2,2;39
08.06.2023;07:00;<7;14;49;20;2,7;46
08.06.2023;08:00;<7;16;46;20;3,2;48
08.06.2023;09:00;<7;18;44;20;2,6;34
08.06.2023;10:00;<7;14;57;20;3,7;46
08.06.2023;11:00;<7;14;66;20;3,7;46
08.06.2023;12:00;<7;11;86;20;4,0;51
08.06.2023;13:00;<7;<10;108;20;4,2;54
08.06.2023;14:00;<7;<10;118;20;4,7;61
08.06.2023;15:00;<7;<10;120;20;4,9;53
08.06.2023;16:00;<7;<10;125;20;4,8;59
08.06.2023;17:00;<7;<10;124;20;4,3;59
08.06.2023;18:00;<7;<10;125;19;5,1;61
08.06.2023;19:00;<7;<10;127;19;4,9;64
08.06.2023;20:00;<7;<10;124;19;4,4;60
08.06.2023;21:00;<7;<10;114;19;3,9;54
08.06.2023;22:00;<7;12;104;19;3,1;55
08.06.2023;23:00;<7;15;95;19;3,4;50
08.06.2023;24:00;<7;20;85;19;3,1;54
09.06.2023;01:00;<7;21;80;19;3,1;57
09.06.2023;02:00;;;;19;2,6;49
09.06.2023;03:00;<7;17;70;19;2,8;51
09.06.2023;04:00;<7;16;63;19;2,5;59
09.06.2023;05:00;<7;16;57;20;2,2;51
09.06.2023;06:00;<7;21;48;20;2,3;51
09.06.2023;07:00;<7;24;50;20;1,4;50
09.06.2023;08:00;<7;22;62;20;2,5;63
09.06.2023;09:00;<7;22;72;21;2,5;72
09.06.2023;10:00;<7;17;92;21;3,1;74
09.06.2023;11:00;<7;<10;118;21;4,1;88
09.06.2023;12:00;<7;<10;127;21;3,9;105
09.06.2023;13:00;<7;<10;126;20;3,6;132
09.06.2023;14:00;<7;<10;127;20;3,9;95
09.06.2023;15:00;<7;<10;132;20;4,3;69
09.06.2023;16:00;<7;<10;133;20;4,1;71
09.06.2023;17:00;<7;<10;132;20;4,6;84
09.06.2023;18:00;<7;<10;133;20;5,6;70
09.06.2023;19:00;<7;<10;133;20;5,5;67
09.06.2023;20:00;<7;<10;129;21;5,0;77
09.06.2023;21:00;<7;<10;121;21;3,9;72
09.06.2023;22:00;<7;<10;117;21;4,8;73
09.06.2023;23:00;<7;<10;107;21;3,9;73
09.06.2023;24:00;<7;11;99;21;3,8;66
10.06.2023;01:00;<7;12;91;21;3,6;63
10.06.2023;02:00;<7;15;82;21;3,6;60
10.06.2023;03:00;;;;21;3,9;57
10.06.2023;04:00;<7;15;74;21;2,8;60
10.06.2023;05:00;<7;17;69;21;2,4;52
10.06.2023;06:00;<7;18;67;21;1,9;49
10.06.2023;07:00;<7;18;67;21;2,0;54
10.06.2023;08:00;<7;15;75;21;2,5;56
10.06.2023;09:00;<7;11;87;20;3,5;59
10.06.2023;10:00;<7;<10;102;20;3,7;58
10.06.2023;11:00;<7;<10;114;20;3,4;45
10.06.2023;12:00;<7;<10;128;20;4,0;52
10.06.2023;13:00;<7;<10;137;21;4,3;65
10.06.2023;14:00;<7;<10;139;21;4,8;74
10.06.2023;15:00;<7;<10;138;21;4,5;63
10.06.2023;16:00;<7;<10;138;21;4,5;64
10.06.2023;17:00;<7;<10;138;21;4,6;65
10.06.2023;18:00;<7;<10;135;21;4,5;62
10.06.2023;19:00;<7;<10;133;21;5,0;69
10.06.2023;20:00;<7;<10;125;21;4,5;59
10.06.2023;21:00;<7;<10;119;21;4,0;64
10.06.2023;22:00;<7;<10;108;21;3,0;67
10.06.2023;23:00;<7;<10;99;21;3,3;71
10.06.2023;24:00;<7;11;89;21;2,7;74
11.06.2023;01:00;<7;13;82;21;2,7;71
11.06.2023;02:00;<7;20;64;22;1,1;44
11.06.2023;03:00;<7;18;58;22;1,2;32
11.06.2023;04:00;;;;22;2,2;34
11.06.2023;05:00;<7;18;60;21;1,5;33
11.06.2023;06:00;<7;16;62;21;1,9;36
11.06.2023;07:00;<7;13;68;21;1,3;60
11.06.2023;08:00;<7;<10;94;21;2,4;110
11.06.2023;09:00;<7;<10;109;21;3,4;139
11.06.2023;10:00;<7;<10;114;21;3,7;146
11.06.2023;11:00;<7;<10;113;21;3,8;173
11.06.2023;12:00;<7;<10;122;21;4,1;156
11.06.2023;13:00;<7;<10;126;20;4,1;135
11.06.2023;14:00;<7;<10;129;20;3,8;122
11.06.2023;15:00;<7;<10;130;20;3,7;105
11.06.2023;16:00;<7;<10;130;20;4,1;98
11.06.2023;17:00;<7;<10;133;21;4,5;85
11.06.2023;18:00;<7;13;123;23;4,5;90
11.06.2023;19:00;<7;<10;122;23;5,0;81
11.06.2023;20:00;<7;<10;118;22;4,1;81
11.06.2023;21:00;<7;11;110;22;3,4;78
11.06.2023;22:00;<7;12;103;22;3,5;79
11.06.2023;23:00;<7;14;98;22;3,2;82
11.06.2023;24:00;<7;19;86;22;2,6;73
12.06.2023;01:00;<7;19;79;21;1,6;66
12.06.2023;02:00;<7;22;67;21;0,5;
12.06.2023;03:00;<7;15;66;21;1,6;29
12.06.2023;04:00;<7;19;56;20;2,0;38
12.06.2023;05:00;;;;20;1,8;43
12.06.2023;06:00;<7;36;37;20;0,9;
12.06.2023;07:00;<7;38;46;20;1,4;69
12.06.2023;08:00;<7;31;69;20;2,6;86
12.06.2023;09:00;<7;11;106;20;3,5;98
12.06.2023;10:00;<7;<10;112;20;3,1;102
12.06.2023;11:00;<7;<10;123;21;2,9;111
12.06.2023;12:00;<7;<10;130;21;3,4;131
12.06.2023;13:00;<7;<10;131;21;3,3;126
12.06.2023;14:00;<7;<10;130;21;3,1;104
12.06.2023;15:00;<7;<10;131;21;4,2;79
12.06.2023;16:00;<7;<10;132;21;4,4;79
12.06.2023;17:00;<7;<10;132;19;5,4;72
12.06.2023;18:00;<7;<10;130;18;4,6;63
12.06.2023;19:00;<7;<10;126;18;4,7;60
12.06.2023;20:00;<7;10;120;18;3,9;68
12.06.2023;21:00;<7;11;110;18;4,4;66
12.06.2023;22:00;<7;17;97;18;3,4;63
12.06.2023;23:00;<7;31;74;18;3,2;59
12.06.2023;24:00;<7;25;76;18;3,8;64
13.06.2023;01:00;<7;27;71;19;3,1;64
13.06.2023;02:00;<7;26;70;19;3,1;61
13.06.2023;03:00;<7;23;68;19;3,2;51
13.06.2023;04:00;<7;24;62;19;1,6;46